| time (UTC) | temp F | wind direction | speed MPH | gust MPH | rain 1hr in | rain 24hr in | rain mn in | humidity % | barometer mb |
| 20260505163124 | 60 | 211 | 2.0 | 10.0 | 0.00 | 0.00 | 0.00 | 77 | 1014.8 |
| 20260505162122 | 60 | 151 | 3.0 | 14.0 | 0.00 | 0.00 | 0.00 | 77 | 1014.8 |
| 20260505161122 | 60 | 152 | 4.0 | 13.0 | 0.00 | 0.00 | 0.00 | 77 | 1014.7 |
| 20260505160124 | 59 | 199 | 2.0 | 10.0 | 0.00 | 0.00 | 0.00 | 79 | 1014.7 |
| 20260505153124 | 59 | 160 | 3.0 | 13.0 | 0.00 | 0.00 | 0.00 | 77 | 1014.6 |
| 20260505152122 | 59 | 170 | 2.0 | 11.0 | 0.00 | 0.00 | 0.00 | 77 | 1014.6 |
| 20260505151124 | 58 | 149 | 3.0 | 13.0 | 0.00 | 0.00 | 0.00 | 78 | 1014.6 |
| 20260505150124 | 58 | 156 | 2.0 | 10.0 | 0.00 | 0.00 | 0.00 | 78 | 1014.5 |
| 20260505140122 | 57 | 133 | 1.0 | 5.0 | 0.00 | 0.00 | 0.00 | 80 | 1013.9 |
| 20260505130122 | 56 | 125 | 1.0 | 5.0 | 0.00 | 0.00 | 0.00 | 78 | 1013.1 |
| 20260505124122 | 56 | 130 | 0.0 | 3.0 | 0.00 | 0.00 | 0.00 | 78 | 1012.9 |
| 20260505123122 | 56 | 130 | 1.0 | 5.0 | 0.00 | 0.00 | 0.00 | 78 | 1012.8 |
| 20260505122143 | 56 | 146 | 1.0 | 5.0 | 0.00 | 0.00 | 0.00 | 78 | 1012.8 |
| 20260505121122 | 56 | 138 | 1.0 | 5.0 | 0.00 | 0.00 | 0.00 | 78 | 1012.7 |
| 20260505120122 | 56 | 125 | 3.0 | 6.0 | 0.00 | 0.00 | 0.00 | 79 | 1012.6 |
| 20260505115123 | 56 | 130 | 2.0 | 6.0 | 0.00 | 0.00 | 0.00 | 79 | 1012.5 |
| 20260505114124 | 56 | 126 | 2.0 | 6.0 | 0.00 | 0.00 | 0.00 | 79 | 1012.4 |
| 20260505113122 | 56 | 124 | 3.0 | 11.0 | 0.00 | 0.00 | 0.00 | 79 | 1012.3 |
| 20260505112122 | 56 | 123 | 4.0 | 11.0 | 0.00 | 0.00 | 0.00 | 79 | 1012.2 |
| 20260505111128 | 57 | 123 | 3.0 | 11.0 | 0.00 | 0.00 | 0.00 | 78 | 1012.1 |
| 20260505111124 | 57 | 122 | 3.0 | 11.0 | 0.00 | 0.00 | 0.00 | 78 | 1012.1 |
| 20260505110123 | 57 | 123 | 2.0 | 6.0 | 0.00 | 0.00 | 0.00 | 77 | 1012.0 |
| 20260505102123 | 58 | 110 | 2.0 | 10.0 | 0.00 | 0.00 | 0.00 | 74 | 1011.6 |
| 20260505101143 | 59 | 117 | 2.0 | 6.0 | 0.00 | 0.00 | 0.00 | 73 | 1011.4 |
| 20260505100122 | 59 | 116 | 2.0 | 8.0 | 0.00 | 0.00 | 0.00 | 72 | 1011.2 |
| 20260505095122 | 59 | 116 | 1.0 | 5.0 | 0.00 | 0.00 | 0.00 | 72 | 1011.0 |
| 20260505094123 | 59 | 136 | 1.0 | 10.0 | 0.00 | 0.00 | 0.00 | 71 | 1011.0 |
| 20260505093122 | 59 | 149 | 2.0 | 10.0 | 0.00 | 0.00 | 0.00 | 70 | 1010.8 |
| 20260505092122 | 60 | 149 | 2.0 | 8.0 | 0.00 | 0.00 | 0.00 | 71 | 1010.7 |
| 20260505091124 | 60 | 248 | 0.0 | 3.0 | 0.00 | 0.00 | 0.00 | 76 | 1010.6 |
| 20260505090122 | 60 | 0 | 0.0 | 0.0 | 0.00 | 0.00 | 0.00 | 79 | 1010.5 |
| 20260505085122 | 60 | 258 | 0.0 | 2.0 | 0.00 | 0.00 | 0.00 | 79 | 1010.4 |
| 20260505084143 | 61 | 0 | 0.0 | 0.0 | 0.00 | 0.00 | 0.00 | 78 | 1010.2 |
| 20260505083122 | 61 | 0 | 0.0 | 0.0 | 0.00 | 0.00 | 0.00 | 77 | 1010.2 |
| 20260505082125 | 61 | 0 | 0.0 | 0.0 | 0.00 | 0.00 | 0.00 | 75 | 1010.1 |
| 20260505081122 | 62 | 261 | 0.0 | 2.0 | 0.00 | 0.00 | 0.00 | 73 | 1010.0 |
| 20260505080124 | 62 | 261 | 0.0 | 2.0 | 0.00 | 0.00 | 0.00 | 72 | 1010.0 |
| 20260505075122 | 63 | 0 | 0.0 | 0.0 | 0.00 | 0.00 | 0.00 | 71 | 1009.9 |
| 20260505074122 | 63 | 0 | 0.0 | 0.0 | 0.00 | 0.00 | 0.00 | 69 | 1009.8 |
| 20260505073124 | 63 | 0 | 0.0 | 2.0 | 0.00 | 0.00 | 0.00 | 68 | 1009.5 |
| 20260505072122 | 64 | 120 | 0.0 | 2.0 | 0.00 | 0.00 | 0.00 | 67 | 1009.4 |
| 20260505071144 | 64 | 0 | 0.0 | 0.0 | 0.00 | 0.00 | 0.00 | 66 | 1009.3 |
| 20260505070122 | 64 | 136 | 0.0 | 3.0 | 0.00 | 0.00 | 0.00 | 66 | 1009.1 |
| 20260505065122 | 64 | 115 | 0.0 | 2.0 | 0.00 | 0.00 | 0.00 | 65 | 1009.0 |
| 20260505064124 | 65 | 0 | 0.0 | 0.0 | 0.00 | 0.00 | 0.00 | 66 | 1009.0 |
| 20260505063143 | 65 | 125 | 1.0 | 6.0 | 0.00 | 0.00 | 0.00 | 66 | 1008.8 |
| 20260505062122 | 65 | 110 | 0.0 | 3.0 | 0.00 | 0.00 | 0.00 | 65 | 1008.8 |
| 20260505061122 | 66 | 130 | 0.0 | 3.0 | 0.00 | 0.00 | 0.00 | 63 | 1008.7 |
| 20260505060124 | 66 | 0 | 0.0 | 0.0 | 0.00 | 0.00 | 0.00 | 62 | 1008.7 |
| 20260505055124 | 67 | 125 | 2.0 | 5.0 | 0.00 | 0.00 | 0.00 | 61 | 1008.6 |
| 20260505054122 | 67 | 124 | 2.0 | 6.0 | 0.00 | 0.00 | 0.00 | 60 | 1008.6 |
| 20260505053124 | 67 | 124 | 2.0 | 5.0 | 0.00 | 0.00 | 0.00 | 59 | 1008.6 |
| 20260505052143 | 67 | 123 | 0.0 | 6.0 | 0.00 | 0.00 | 0.00 | 59 | 1008.5 |
| 20260505051122 | 67 | 134 | 2.0 | 6.0 | 0.00 | 0.00 | 0.00 | 59 | 1008.5 |
| 20260505050124 | 67 | 117 | 2.0 | 5.0 | 0.00 | 0.00 | 0.00 | 60 | 1008.4 |
| 20260505041122 | 70 | 0 | 0.0 | 2.0 | 0.00 | 0.00 | 0.00 | 54 | 1007.9 |
| 20260505040145 | 71 | 0 | 0.0 | 0.0 | 0.00 | 0.00 | 0.00 | 53 | 1007.9 |
| 20260505035122 | 72 | 0 | 0.0 | 0.0 | 0.00 | 0.00 | 0.00 | 51 | 1007.8 |
| 20260505034145 | 73 | 281 | 0.0 | 2.0 | 0.00 | 0.00 | 0.00 | 50 | 1007.7 |
| 20260505033124 | 73 | 0 | 0.0 | 0.0 | 0.00 | 0.00 | 0.00 | 48 | 1007.6 |
| 20260505032122 | 74 | 0 | 0.0 | 0.0 | 0.00 | 0.00 | 0.00 | 47 | 1007.5 |
| 20260505031122 | 75 | 270 | 0.0 | 5.0 | 0.00 | 0.00 | 0.00 | 46 | 1007.5 |
| 20260505030143 | 75 | 258 | 1.0 | 5.0 | 0.00 | 0.00 | 0.00 | 45 | 1007.5 |
| 20260505025123 | 76 | 269 | 1.0 | 5.0 | 0.00 | 0.00 | 0.00 | 44 | 1007.5 |
| 20260505024122 | 77 | 258 | 1.0 | 5.0 | 0.00 | 0.00 | 0.00 | 43 | 1007.3 |
| 20260505023143 | 77 | 273 | 1.0 | 5.0 | 0.00 | 0.00 | 0.00 | 41 | 1007.4 |
| 20260505022124 | 78 | 275 | 2.0 | 10.0 | 0.00 | 0.00 | 0.00 | 40 | 1007.5 |
| 20260505021125 | 78 | 262 | 1.0 | 6.0 | 0.00 | 0.00 | 0.00 | 39 | 1007.5 |
| 20260505020143 | 78 | 285 | 2.0 | 13.0 | 0.00 | 0.00 | 0.00 | 39 | 1007.4 |
| 20260505015122 | 78 | 260 | 2.0 | 10.0 | 0.00 | 0.00 | 0.00 | 39 | 1007.4 |
| 20260505014122 | 79 | 272 | 3.0 | 11.0 | 0.00 | 0.00 | 0.00 | 39 | 1007.6 |
| 20260505013122 | 79 | 262 | 3.0 | 11.0 | 0.00 | 0.00 | 0.00 | 38 | 1007.6 |
| 20260505012124 | 80 | 261 | 3.0 | 11.0 | 0.00 | 0.00 | 0.00 | 38 | 1007.6 |
| 20260505011123 | 80 | 288 | 5.0 | 14.0 | 0.00 | 0.00 | 0.00 | 39 | 1007.6 |
| 20260505010143 | 80 | 257 | 4.0 | 11.0 | 0.00 | 0.00 | 0.00 | 37 | 1007.7 |
| 20260505005122 | 81 | 266 | 3.0 | 13.0 | 0.00 | 0.00 | 0.00 | 39 | 1007.7 |
| 20260505004124 | 82 | 287 | 3.0 | 11.0 | 0.00 | 0.00 | 0.00 | 38 | 1007.7 |
| 20260505003122 | 81 | 273 | 3.0 | 13.0 | 0.00 | 0.00 | 0.00 | 38 | 1007.6 |
| 20260505002123 | 82 | 266 | 3.0 | 14.0 | 0.00 | 0.00 | 0.00 | 39 | 1007.6 |
| 20260505001125 | 82 | 269 | 4.0 | 16.0 | 0.00 | 0.00 | 0.00 | 39 | 1007.6 |
| 20260505000143 | 82 | 287 | 5.0 | 16.0 | 0.00 | 0.00 | 0.00 | 38 | 1007.6 |
| 20260504235123 | 82 | 260 | 4.0 | 13.0 | 0.00 | 0.00 | 0.00 | 38 | 1007.6 |
| 20260504234122 | 83 | 271 | 3.0 | 14.0 | 0.00 | 0.00 | 0.00 | 36 | 1007.7 |
| 20260504233122 | 83 | 255 | 4.0 | 14.0 | 0.00 | 0.00 | 0.00 | 37 | 1007.8 |
| 20260504232145 | 83 | 241 | 4.0 | 14.0 | 0.00 | 0.00 | 0.00 | 36 | 1007.8 |
| 20260504231122 | 83 | 289 | 3.0 | 14.0 | 0.00 | 0.00 | 0.00 | 31 | 1007.8 |
| 20260504230145 | 83 | 278 | 5.0 | 18.0 | 0.00 | 0.00 | 0.00 | 28 | 1007.9 |
| 20260504225143 | 83 | 303 | 5.0 | 16.0 | 0.00 | 0.00 | 0.00 | 30 | 1008.1 |
| 20260504224124 | 83 | 275 | 4.0 | 16.0 | 0.00 | 0.00 | 0.00 | 31 | 1008.2 |
| 20260504223122 | 83 | 264 | 4.0 | 13.0 | 0.00 | 0.00 | 0.00 | 30 | 1008.2 |
| 20260504222143 | 83 | 278 | 4.0 | 19.0 | 0.00 | 0.00 | 0.00 | 33 | 1008.2 |
| 20260504221122 | 83 | 274 | 3.0 | 13.0 | 0.00 | 0.00 | 0.00 | 34 | 1008.2 |
| 20260504220145 | 83 | 261 | 4.0 | 14.0 | 0.00 | 0.00 | 0.00 | 32 | 1008.3 |
| 20260504215123 | 83 | 288 | 3.0 | 14.0 | 0.00 | 0.00 | 0.00 | 34 | 1008.4 |
| 20260504214122 | 82 | 278 | 4.0 | 14.0 | 0.00 | 0.00 | 0.00 | 34 | 1008.4 |
| 20260504213122 | 82 | 267 | 5.0 | 14.0 | 0.00 | 0.00 | 0.00 | 34 | 1008.5 |
| 20260504212122 | 82 | 275 | 5.0 | 21.0 | 0.00 | 0.00 | 0.00 | 34 | 1008.5 |
| 20260504211122 | 81 | 284 | 5.0 | 16.0 | 0.00 | 0.00 | 0.00 | 35 | 1008.5 |
| 20260504210124 | 81 | 284 | 4.0 | 14.0 | 0.00 | 0.00 | 0.00 | 35 | 1008.6 |
| 20260504205124 | 81 | 274 | 3.0 | 13.0 | 0.00 | 0.00 | 0.00 | 36 | 1008.8 |
| 20260504204122 | 80 | 285 | 4.0 | 16.0 | 0.00 | 0.00 | 0.00 | 37 | 1008.9 |
| 20260504203122 | 80 | 257 | 3.0 | 11.0 | 0.00 | 0.00 | 0.00 | 38 | 1008.8 |
| 20260504202122 | 79 | 256 | 5.0 | 14.0 | 0.00 | 0.00 | 0.00 | 38 | 1008.9 |
| 20260504201122 | 79 | 280 | 5.0 | 16.0 | 0.00 | 0.00 | 0.00 | 40 | 1008.9 |
| 20260504200122 | 79 | 290 | 5.0 | 14.0 | 0.00 | 0.00 | 0.00 | 40 | 1009.0 |
| 20260504195122 | 79 | 244 | 4.0 | 13.0 | 0.00 | 0.00 | 0.00 | 38 | 1009.0 |
| 20260504194122 | 78 | 253 | 5.0 | 18.0 | 0.00 | 0.00 | 0.00 | 38 | 1009.1 |
| 20260504193122 | 78 | 229 | 6.0 | 19.0 | 0.00 | 0.00 | 0.00 | 38 | 1009.1 |
| 20260504192122 | 77 | 245 | 5.0 | 16.0 | 0.00 | 0.00 | 0.00 | 39 | 1009.1 |
| 20260504191144 | 77 | 248 | 5.0 | 18.0 | 0.00 | 0.00 | 0.00 | 40 | 1009.2 |
| 20260504190143 | 76 | 256 | 5.0 | 21.0 | 0.00 | 0.00 | 0.00 | 42 | 1009.3 |
| 20260504185124 | 76 | 269 | 4.0 | 14.0 | 0.00 | 0.00 | 0.00 | 43 | 1009.1 |
| 20260504184123 | 76 | 268 | 5.0 | 18.0 | 0.00 | 0.00 | 0.00 | 46 | 1009.1 |
| 20260504183124 | 76 | 242 | 4.0 | 13.0 | 0.00 | 0.00 | 0.00 | 47 | 1009.1 |
| 20260504182123 | 75 | 261 | 3.0 | 14.0 | 0.00 | 0.00 | 0.00 | 49 | 1009.1 |
| 20260504181122 | 74 | 272 | 3.0 | 11.0 | 0.00 | 0.00 | 0.00 | 50 | 1009.2 |
| 20260504180123 | 74 | 251 | 3.0 | 13.0 | 0.00 | 0.00 | 0.00 | 50 | 1009.2 |
| 20260504175122 | 74 | 250 | 4.0 | 11.0 | 0.00 | 0.00 | 0.00 | 47 | 1009.2 |
| 20260504174145 | 73 | 262 | 3.0 | 11.0 | 0.00 | 0.00 | 0.00 | 48 | 1009.3 |
| 20260504173124 | 73 | 259 | 3.0 | 11.0 | 0.00 | 0.00 | 0.00 | 49 | 1009.2 |
| 20260504172122 | 72 | 256 | 3.0 | 16.0 | 0.00 | 0.00 | 0.00 | 48 | 1009.3 |
| 20260504171124 | 72 | 251 | 3.0 | 11.0 | 0.00 | 0.00 | 0.00 | 48 | 1009.4 |
| 20260504170122 | 71 | 279 | 1.0 | 6.0 | 0.00 | 0.00 | 0.00 | 48 | 1009.4 |